STARLINK-34552, 64731

Orbit data source: Space-Track

STARLINK-34552, 64731 is a payload satellite owned by SpaceX/Seattle (US) in LEO that was launched on Wed, 02 Jul 2025 UTC via an FALCON 9 launch vehicle from the Air Force Eastern Test Range (AFETR). Payload-class satellites include a variety of spacecraft equipped with specific instruments for various scientific and technological missions. These include communications satellites like Starlink; space stations such as the ISS; scientific satellites like the Hubble; Earth observation satellites from companies like Planet Labs, Umbra, and HawkEye 360; GPS; miniature CubeSats for education and research; and military/defense satellites.

Loading next visibility...
Identifier
64731, 2025-144H
Orbit
LEO
Country
Flag of USUS
Related business
Manufacturer
SpaceX/Seattle
Mission
Operational Commercial Communications
Bus & Motor
STARLINK V2MO, Unknown motor
Mass
575 kg wet, ~530 kg dry
Launch date (UTC)
2025-07-02 (1 year ago)
Launch vehicle
FALCON 9
Launch site
Air Force Eastern Test Range (AFETR)
Object type
Payload
Rocket body
Debris
Shape & HBR
Box + 2 Pan, 17.7 m
Radar Cross Section
36.964 m², Large (>1 m²)

Expand to show TLE details & history
Last TLE update: 10 hours ago

TLE from 10 hours ago
0 STARLINK-34552
1 64731U 25144H   26171.42223593  .00005198  00000-0  18742-3 0  9992
2 64731  53.1611  63.6444 0001419  97.7258 262.3904 15.30216619 55448
Epoch: 2026-06-20T10:08Z
TLE epoch observation values (Epoch: 2026-06-20T10:08:01.184Z)
Latitude
-0.00001°
Longitude
3.00237°
Altitude
476.194 km
Speed
7.629 km/s
True Right ascension
04h 14m 34s
True Declination
0° 00' 00"
Sunlit
Object was in daylight at epoch
Visualization orbit readout
Latitude
Unknown
Longitude
Unknown
Altitude
Unknown
Speed
Unknown
Apparent Right ascension
Unknown
Apparent Declination
Unknown
Sunlit
N/A
Visualization observer readout
Local Sidereal Time
07:23:48
Azimuth
Unknown
Elevation
Unknown
Doppler factor
Unknown
Orbital elements
Apogee altitude
476.394 km
Perigee altitude
474.449 km
Semi-major axis
6,853.559 km
Eccentricity
0.00014
Inclination
53.1611°
RAAN
63.6444°
Arg. of periapsis
97.7258°
True anomaly
262.37428°
Mean anomaly
262.3904°
Eccentric anomaly
262.38234°
Mean motion
3.82533 °/min
Orbital period
94.11 mins
BSTAR
0.00018742
Loading maneuver chart data...
Computing Atmospheric mass density...
Loading historical data...
Loading historical data...
Loading historical data...
Loading historical data...
Loading historical data...
Loading historical data...
Loading historical data...

Documentation

Showing up to 5 results
|